sat.trackr.live / text

‹ back to catalog

STARLINK-3252

NORAD 49733 · 2021-115K

PAYLOAD ACTIVE UNKNOWN

§ Identity

Operator
Country
US
Launch date
2021-12-02
Launch site
AFETR
Launch vehicle
Mass (kg)
RCS (m²)

Purposes: comms

External: N2YO · Heavens-Above · Gunter

§ Orbital elements

Epoch: 2026-05-25T02:08:51.937728Z

Period
95.44 min
Inclination
53.2163°
Eccentricity
0.0000949
Mean motion
15.08831847 rev/d
Perigee alt
539.1 km
Apogee alt
540.4 km
Semi-major
6,917.9 km
B*
-1.1604e-5
RAAN
176.1482°
Arg perigee
67.8581°
Mean anomaly
292.2511°
Rev number
24,692

§ Raw data

STARLINK-32521 49733U 21115K   26145.08949002 -.00000472  00000+0 -11604-4 0  99962 49733  53.2163 176.1482 0000949  67.8581 292.2511 15.08831847246924

JSON: /api/v1/satellites/49733 · /tle

For live sub-satellite position, see the globe view (requires WebGL).

§ Visibility from observer

Set your observer location to see the next 7 days of passes ≥ 10°. The values pass through the URL so the page stays shareable.

No JS? Fill the form by hand. The geolocation button needs JavaScript.